Location: Gilevgi
(36.8751°N, 30.0581°E)
Time: 23:17:51
(UTC+00:00)

IRS-P3 - Visible Passes

Search period start: 14 March 2026 00:00
Search period end: 24 March 2026 00:00
Orbit: 811 x 815 km, 99.0° (Epoch: 14 March)

Date Brightness Start Highest point End Pass type
(mag) Time Alt. Az. Time Alt. Az. Time Alt. Az.
14 Mar 6.4 17:11:56 10° SSW 17:16:23 27° W 17:20:52 10° NW visible
15 Mar 5.4 16:48:19 10° S 16:53:24 45° W 16:58:29 10° NNW visible
16 Mar 4.4 16:25:09 10° S 16:30:28 76° WSW 16:35:49 10° NNW visible
17 Mar 7.2 17:45:23 10° WSW 17:47:54 13° W 17:50:26 10° WNW visible
18 Mar 6.7 17:20:41 10° SSW 17:24:48 23° W 17:28:58 10° NW visible
19 Mar 5.8 16:56:53 10° SSW 17:01:47 38° W 17:06:44 10° NNW visible
20 Mar 4.7 16:33:34 10° S 16:38:50 64° WSW 16:44:08 10° NNW visible
21 Mar 7.4 17:55:00 10° WSW 17:56:21 11° W 17:57:44 10° WNW visible
22 Mar 6.9 17:29:30 10° SW 17:33:15 19° W 17:36:59 10° NW visible
23 Mar 6.1 17:05:29 10° SSW 17:10:11 32° W 17:14:55 10° NW visible
